This is the latest recevied weather packets stored in our database for station/object KC3WWU. If no packets are shown the sender has not sent any weather packets the latest 10 day(s).
| Time | Temp. | Humidity | Pressure | Rain* | Wind** | Luminosity | Snow |
|---|---|---|---|---|---|---|---|
| 1777974548 | 13.89° C | 85% | 1006.6 hPa | 0 mm | - | 0 W/m² | - |
| 1777974246 | 13.33° C | 81% | 1006.9 hPa | 0 mm | - | 0 W/m² | - |
| 1777973941 | 13.33° C | 84% | 1006.8 hPa | 0 mm | - | 0 W/m² | - |
| 1777973639 | 13.33° C | 82% | 1006.9 hPa | 0 mm | - | 0 W/m² | - |
| 1777973336 | 12.78° C | 87% | 1007.1 hPa | 0 mm | - | 0 W/m² | - |
| 1777973034 | 13.33° C | 87% | 1006.9 hPa | 0 mm | - | 0 W/m² | - |
| 1777972730 | 13.33° C | 82% | 1007 hPa | 0 mm | - | 0 W/m² | - |
| 1777972429 | 13.33° C | 87% | 1006.9 hPa | 0 mm | - | 0 W/m² | - |
| 1777972126 | 14.44° C | 80% | 1006.8 hPa | 0 mm | - | 0 W/m² | - |
| 1777971825 | 13.89° C | 79% | 1006.8 hPa | 0 mm | - | 0 W/m² | - |
| 1777971521 | 13.89° C | 82% | 1007 hPa | 0 mm | - | 0 W/m² | - |
| 1777971219 | 14.44° C | 80% | 1007.1 hPa | 0 mm | - | 0 W/m² | - |
| 1777970917 | 13.89° C | 79% | 1007.3 hPa | 0 mm | - | 0 W/m² | - |
| 1777970615 | 14.44° C | 80% | 1007.5 hPa | 0 mm | - | 0 W/m² | - |
| 1777970312 | 14.44° C | 79% | 1007.2 hPa | 0 mm | - | 0 W/m² | - |
| 1777970010 | 14.44° C | 83% | 1006.9 hPa | 0 mm | - | 0 W/m² | - |
| 1777969706 | 13.89° C | 85% | 1006.9 hPa | 3.05 mm | - | 0 W/m² | - |
| 1777969402 | 14.44° C | 83% | 1007 hPa | 3.05 mm | - | 0 W/m² | - |
| 1777969099 | 15° C | 76% | 1007 hPa | 0 mm | - | 0 W/m² | - |
| 1777968796 | 15° C | 74% | 1007 hPa | 0 mm | - | 0 W/m² | - |
| 1777968492 | 15° C | 75% | 1006.7 hPa | 0 mm | - | 0 W/m² | - |
| 1777968188 | 14.44° C | 75% | 1006.1 hPa | 0 mm | - | 0 W/m² | - |
| 1777967884 | 13.89° C | 75% | 1006.1 hPa | 0 mm | - | 0 W/m² | - |
| 1777967581 | 14.44° C | 76% | 1006.2 hPa | 0 mm | - | 0 W/m² | - |
| 1777967278 | 14.44° C | 78% | 1006.1 hPa | 0 mm | - | 0 W/m² | - |
* Rain latest hour (hover to see other rain measurements)
** Current wind speed in m/s (hover to see current wind gust speed)